Powrót do katalogu

STARLINK-36445

AktywnyŁącznośćVLEO
NORAD 67313·PAYLOAD·🇺🇸 United States

Wystrzelony Jan 4, 2026 z Cape Canaveral Space Force Station

Loading…

Następne Przeloty (najbliższe 24 godziny)

TLE

ŚwieżeSource: CelesTrak SupGP

Epoka: Sep 15, 2026, 03:48 UTC

1 67313C 26002J   26258.15881944  .00049391  00000+0  17892-2 0  2585
2 67313  43.0011 335.5877 0001429 268.2301  27.2473 15.27549876    17

Śledź STARLINK-36445 w czasie rzeczywistym z AllMySat

Download on the App Store